Time,TemperatureF,DewpointF,PressureIn,WindDirection,WindDirectionDegrees,WindSpeedMPH,WindSpeedGustMPH,Humidity,HourlyPrecipIn,Conditions,Clouds,dailyrainin,SoftwareType,DateUTC
2013-06-16 00:02:00,69.0,63.0,30.13,South,178,0.0,-999.0,80,-99.99,,,-99.99,,2013-06-16 04:02:00,
2013-06-16 00:12:00,69.0,63.0,30.13,South,178,0.0,-999.0,80,-99.99,,,-99.99,,2013-06-16 04:12:00,
2013-06-16 00:23:00,69.0,63.0,30.13,South,178,0.0,-999.0,80,-99.99,,,-99.99,,2013-06-16 04:23:00,
2013-06-16 00:34:00,69.0,63.0,30.13,South,178,0.0,-999.0,80,-99.99,,,-99.99,,2013-06-16 04:34:00,
2013-06-16 00:43:00,69.0,63.0,30.13,South,178,0.0,-999.0,80,-99.99,,,-99.99,,2013-06-16 04:43:00,
2013-06-16 00:53:00,68.0,62.0,30.13,South,178,0.0,-999.0,80,-99.99,,,-99.99,,2013-06-16 04:53:00,
2013-06-16 01:02:00,68.0,62.0,30.13,South,178,0.0,-999.0,80,-99.99,,,-99.99,,2013-06-16 05:02:00,
2013-06-16 01:12:00,68.0,62.0,30.13,South,178,0.0,-999.0,80,-99.99,,,-99.99,,2013-06-16 05:12:00,
2013-06-16 01:22:00,69.0,63.0,30.13,South,178,0.0,-999.0,82,-99.99,,,-99.99,,2013-06-16 05:22:00,
2013-06-16 01:34:00,68.0,63.0,30.13,South,178,0.0,-999.0,83,-99.99,,,-99.99,,2013-06-16 05:34:00,
2013-06-16 01:43:00,68.0,63.0,30.13,South,178,0.0,-999.0,83,-99.99,,,-99.99,,2013-06-16 05:43:00,
2013-06-16 01:52:00,68.0,63.0,30.13,South,178,0.0,-999.0,83,-99.99,,,-99.99,,2013-06-16 05:52:00,
2013-06-16 02:01:00,67.0,62.0,30.13,South,178,0.0,-999.0,83,-99.99,,,-99.99,,2013-06-16 06:01:00,
2013-06-16 02:12:00,67.0,62.0,30.13,South,178,0.0,-999.0,83,-99.99,,,-99.99,,2013-06-16 06:12:00,
2013-06-16 02:23:00,67.0,61.0,30.13,South,178,0.0,-999.0,82,-99.99,,,-99.99,,2013-06-16 06:23:00,
2013-06-16 02:33:00,67.0,62.0,30.13,South,178,0.0,-999.0,83,-99.99,,,-99.99,,2013-06-16 06:33:00,
2013-06-16 02:43:00,67.0,62.0,30.13,South,178,0.0,-999.0,83,-99.99,,,-99.99,,2013-06-16 06:43:00,
2013-06-16 02:52:00,67.0,62.0,30.13,South,178,0.0,-999.0,83,-99.99,,,-99.99,,2013-06-16 06:52:00,
2013-06-16 03:01:00,66.0,61.0,30.13,South,178,0.0,-999.0,84,-99.99,,,-99.99,,2013-06-16 07:01:00,
2013-06-16 03:12:00,66.0,61.0,30.13,South,178,0.0,-999.0,84,-99.99,,,-99.99,,2013-06-16 07:12:00,
2013-06-16 03:22:00,66.0,61.0,30.13,South,178,0.0,-999.0,85,-99.99,,,-99.99,,2013-06-16 07:22:00,
2013-06-16 03:33:00,66.0,61.0,30.13,South,178,0.0,-999.0,85,-99.99,,,-99.99,,2013-06-16 07:33:00,
2013-06-16 03:43:00,66.0,62.0,30.12,South,178,0.0,-999.0,86,-99.99,,,-99.99,,2013-06-16 07:43:00,
2013-06-16 03:53:00,66.0,62.0,30.12,South,178,0.0,-999.0,87,-99.99,,,-99.99,,2013-06-16 07:53:00,
2013-06-16 04:02:00,66.0,62.0,30.12,South,178,0.0,-999.0,87,-99.99,,,-99.99,,2013-06-16 08:02:00,
2013-06-16 04:12:00,66.0,62.0,30.12,South,178,0.0,-999.0,87,-99.99,,,-99.99,,2013-06-16 08:12:00,
2013-06-16 04:22:00,65.0,61.0,30.12,South,178,0.0,-999.0,87,-99.99,,,-99.99,,2013-06-16 08:22:00,
2013-06-16 04:33:00,65.0,61.0,30.11,South,178,0.0,-999.0,88,-99.99,,,-99.99,,2013-06-16 08:33:00,
2013-06-16 04:43:00,65.0,61.0,30.11,South,178,0.0,-999.0,88,-99.99,,,-99.99,,2013-06-16 08:43:00,
2013-06-16 04:54:00,65.0,61.0,30.11,South,178,0.0,-999.0,87,-99.99,,,-99.99,,2013-06-16 08:54:00,
2013-06-16 05:02:00,65.0,61.0,30.11,South,178,0.0,-999.0,87,-99.99,,,-99.99,,2013-06-16 09:02:00,
2013-06-16 05:11:00,65.0,61.0,30.11,South,178,0.0,-999.0,87,-99.99,,,-99.99,,2013-06-16 09:11:00,
2013-06-16 05:22:00,65.0,61.0,30.12,South,178,0.0,-999.0,87,-99.99,,,-99.99,,2013-06-16 09:22:00,
2013-06-16 05:33:00,65.0,61.0,30.12,South,178,0.0,-999.0,87,-99.99,,,-99.99,,2013-06-16 09:33:00,
2013-06-16 05:43:00,65.0,61.0,30.12,South,178,0.0,-999.0,87,-99.99,,,-99.99,,2013-06-16 09:43:00,
2013-06-16 05:52:00,65.0,61.0,30.12,South,178,0.0,-999.0,87,-99.99,,,-99.99,,2013-06-16 09:52:00,
2013-06-16 06:02:00,64.0,60.0,30.12,South,178,0.0,-999.0,88,-99.99,,,-99.99,,2013-06-16 10:02:00,
2013-06-16 06:12:00,64.0,60.0,30.12,South,178,0.0,-999.0,88,-99.99,,,-99.99,,2013-06-16 10:12:00,
2013-06-16 06:22:00,64.0,61.0,30.12,South,178,0.0,-999.0,89,-99.99,,,-99.99,,2013-06-16 10:22:00,
2013-06-16 06:33:00,64.0,61.0,30.12,South,178,0.0,-999.0,89,-99.99,,,-99.99,,2013-06-16 10:33:00,
2013-06-16 06:43:00,65.0,62.0,30.14,South,178,0.0,-999.0,89,-99.99,,,-99.99,,2013-06-16 10:43:00,
2013-06-16 06:53:00,65.0,62.0,30.14,South,178,0.0,-999.0,90,-99.99,,,-99.99,,2013-06-16 10:53:00,
2013-06-16 07:02:00,65.0,62.0,30.14,South,178,0.0,-999.0,90,-99.99,,,-99.99,,2013-06-16 11:02:00,
2013-06-16 07:12:00,65.0,62.0,30.15,South,178,0.0,-999.0,91,-99.99,,,-99.99,,2013-06-16 11:12:00,
2013-06-16 07:22:00,66.0,63.0,30.15,South,178,0.0,-999.0,91,-99.99,,,-99.99,,2013-06-16 11:22:00,
2013-06-16 07:34:00,66.0,63.0,30.15,South,178,0.0,-999.0,91,-99.99,,,-99.99,,2013-06-16 11:34:00,
2013-06-16 07:43:00,67.0,64.0,30.15,South,178,0.0,-999.0,90,-99.99,,,-99.99,,2013-06-16 11:43:00,
2013-06-16 07:52:00,68.0,64.0,30.16,South,178,0.0,-999.0,86,-99.99,,,-99.99,,2013-06-16 11:52:00,
2013-06-16 08:02:00,68.0,64.0,30.16,South,178,0.0,-999.0,86,-99.99,,,-99.99,,2013-06-16 12:02:00,
2013-06-16 08:12:00,69.0,64.0,30.16,South,178,0.0,-999.0,83,-99.99,,,-99.99,,2013-06-16 12:12:00,
2013-06-16 08:22:00,71.0,65.0,30.16,South,178,0.0,-999.0,81,-99.99,,,-99.99,,2013-06-16 12:22:00,
2013-06-16 08:33:00,71.0,65.0,30.16,South,178,0.0,-999.0,81,-99.99,,,-99.99,,2013-06-16 12:33:00,
2013-06-16 08:43:00,73.0,65.0,30.17,South,178,1.0,-999.0,76,-99.99,,,-99.99,,2013-06-16 12:43:00,
2013-06-16 08:53:00,74.0,64.0,30.16,South,178,2.0,-999.0,70,-99.99,,,-99.99,,2013-06-16 12:53:00,
2013-06-16 09:01:00,74.0,64.0,30.16,South,178,2.0,-999.0,70,-99.99,,,-99.99,,2013-06-16 13:01:00,
2013-06-16 09:12:00,76.0,64.0,30.17,South,185,3.0,-999.0,66,-99.99,,,-99.99,,2013-06-16 13:12:00,
2013-06-16 09:22:00,76.0,63.0,30.17,SSW,203,3.0,-999.0,64,-99.99,,,-99.99,,2013-06-16 13:22:00,
2013-06-16 09:34:00,76.0,63.0,30.17,SSW,203,3.0,-999.0,64,-99.99,,,-99.99,,2013-06-16 13:34:00,
2013-06-16 09:43:00,77.0,63.0,30.18,SW,220,5.0,-999.0,61,-99.99,,,-99.99,,2013-06-16 13:43:00,
2013-06-16 09:53:00,77.0,63.0,30.18,SW,220,5.0,-999.0,61,-99.99,,,-99.99,,2013-06-16 13:53:00,
2013-06-16 10:02:00,78.0,63.0,30.18,SW,226,3.0,-999.0,61,-99.99,,,-99.99,,2013-06-16 14:02:00,
2013-06-16 10:12:00,78.0,62.0,30.17,SW,226,4.0,-999.0,59,-99.99,,,-99.99,,2013-06-16 14:12:00,
2013-06-16 10:22:00,78.0,62.0,30.18,SW,220,5.0,-999.0,57,-99.99,,,-99.99,,2013-06-16 14:22:00,
2013-06-16 10:34:00,78.0,62.0,30.18,SW,220,5.0,-999.0,57,-99.99,,,-99.99,,2013-06-16 14:34:00,
2013-06-16 10:43:00,79.0,62.0,30.17,WSW,239,5.0,-999.0,56,-99.99,,,-99.99,,2013-06-16 14:43:00,
2013-06-16 10:52:00,79.0,61.0,30.16,SW,219,3.0,-999.0,54,-99.99,,,-99.99,,2013-06-16 14:52:00,
2013-06-16 11:02:00,79.0,61.0,30.16,SW,219,3.0,-999.0,54,-99.99,,,-99.99,,2013-06-16 15:02:00,
2013-06-16 11:12:00,79.0,61.0,30.16,SW,217,4.0,-999.0,54,-99.99,,,-99.99,,2013-06-16 15:12:00,
2013-06-16 11:23:00,80.0,62.0,30.16,SSW,206,3.0,-999.0,54,-99.99,,,-99.99,,2013-06-16 15:23:00,
2013-06-16 11:34:00,80.0,62.0,30.16,SSW,206,3.0,-999.0,54,-99.99,,,-99.99,,2013-06-16 15:34:00,
2013-06-16 11:43:00,80.0,61.0,30.16,West,275,3.0,-999.0,52,-99.99,,,-99.99,,2013-06-16 15:43:00,
2013-06-16 11:52:00,81.0,61.0,30.15,SW,215,2.0,-999.0,51,-99.99,,,-99.99,,2013-06-16 15:52:00,
2013-06-16 12:02:00,81.0,61.0,30.15,SW,215,2.0,-999.0,51,-99.99,,,-99.99,,2013-06-16 16:02:00,
2013-06-16 12:12:00,81.0,61.0,30.15,SSW,193,3.0,-999.0,51,-99.99,,,-99.99,,2013-06-16 16:12:00,
2013-06-16 12:23:00,82.0,61.0,30.15,SSW,196,3.0,-999.0,49,-99.99,,,-99.99,,2013-06-16 16:23:00,
2013-06-16 12:33:00,82.0,61.0,30.15,SSW,196,3.0,-999.0,49,-99.99,,,-99.99,,2013-06-16 16:33:00,
2013-06-16 12:43:00,82.0,63.0,30.14,SSW,206,4.0,-999.0,52,-99.99,,,-99.99,,2013-06-16 16:43:00,
2013-06-16 12:53:00,81.0,61.0,30.14,SSW,199,4.0,-999.0,51,-99.99,,,-99.99,,2013-06-16 16:53:00,
2013-06-16 13:02:00,81.0,61.0,30.14,SSW,199,4.0,-999.0,51,-99.99,,,-99.99,,2013-06-16 17:02:00,
2013-06-16 13:12:00,81.0,61.0,30.13,South,178,4.0,-999.0,51,-99.99,,,-99.99,,2013-06-16 17:12:00,
2013-06-16 13:22:00,81.0,61.0,30.13,South,178,4.0,-999.0,51,-99.99,,,-99.99,,2013-06-16 17:22:00,
2013-06-16 13:34:00,82.0,63.0,30.12,South,176,4.0,-999.0,52,-99.99,,,-99.99,,2013-06-16 17:34:00,
2013-06-16 13:43:00,82.0,62.0,30.12,SSE,161,6.0,-999.0,51,-99.99,,,-99.99,,2013-06-16 17:43:00,
2013-06-16 13:53:00,81.0,62.0,30.12,SW,219,7.0,-999.0,52,-99.99,,,-99.99,,2013-06-16 17:53:00,
2013-06-16 14:02:00,81.0,62.0,30.12,SW,219,7.0,-999.0,52,-99.99,,,-99.99,,2013-06-16 18:02:00,
2013-06-16 14:12:00,82.0,62.0,30.12,SSE,168,6.0,-999.0,51,-99.99,,,-99.99,,2013-06-16 18:12:00,
2013-06-16 14:22:00,81.0,62.0,30.11,South,179,6.0,-999.0,52,-99.99,,,-99.99,,2013-06-16 18:22:00,
2013-06-16 14:34:00,81.0,62.0,30.11,South,179,6.0,-999.0,52,-99.99,,,-99.99,,2013-06-16 18:34:00,
2013-06-16 14:43:00,81.0,61.0,30.11,South,169,6.0,-999.0,51,-99.99,,,-99.99,,2013-06-16 18:43:00,
2013-06-16 14:52:00,81.0,61.0,30.11,South,169,6.0,-999.0,51,-99.99,,,-99.99,,2013-06-16 18:52:00,
2013-06-16 15:01:00,82.0,63.0,30.11,South,175,5.0,-999.0,52,-99.99,,,-99.99,,2013-06-16 19:01:00,
2013-06-16 15:12:00,82.0,63.0,30.10,South,188,4.0,-999.0,52,-99.99,,,-99.99,,2013-06-16 19:12:00,
2013-06-16 15:22:00,82.0,63.0,30.10,South,181,5.0,-999.0,52,-99.99,,,-99.99,,2013-06-16 19:22:00,
2013-06-16 15:34:00,82.0,63.0,30.10,South,181,5.0,-999.0,52,-99.99,,,-99.99,,2013-06-16 19:34:00,
2013-06-16 15:43:00,81.0,62.0,30.09,South,186,7.0,-999.0,53,-99.99,,,-99.99,,2013-06-16 19:43:00,
2013-06-16 15:53:00,81.0,62.0,30.09,SSE,164,6.0,-999.0,53,-99.99,,,-99.99,,2013-06-16 19:53:00,
2013-06-16 16:02:00,81.0,62.0,30.09,SSE,164,6.0,-999.0,53,-99.99,,,-99.99,,2013-06-16 20:02:00,
2013-06-16 16:12:00,81.0,62.0,30.09,South,184,5.0,-999.0,52,-99.99,,,-99.99,,2013-06-16 20:12:00,
2013-06-16 16:22:00,82.0,63.0,30.09,SSE,167,5.0,-999.0,53,-99.99,,,-99.99,,2013-06-16 20:22:00,
2013-06-16 16:33:00,82.0,63.0,30.09,SSE,167,5.0,-999.0,53,-99.99,,,-99.99,,2013-06-16 20:33:00,
2013-06-16 16:42:00,82.0,63.0,30.09,South,184,4.0,-999.0,52,-99.99,,,-99.99,,2013-06-16 20:42:00,
2013-06-16 16:53:00,81.0,63.0,30.09,SE,138,5.0,-999.0,54,-99.99,,,-99.99,,2013-06-16 20:53:00,
2013-06-16 17:02:00,81.0,63.0,30.09,SE,138,5.0,-999.0,54,-99.99,,,-99.99,,2013-06-16 21:02:00,
2013-06-16 17:11:00,81.0,63.0,30.08,South,171,6.0,-999.0,55,-99.99,,,-99.99,,2013-06-16 21:11:00,
2013-06-16 17:22:00,81.0,64.0,30.08,SSE,157,6.0,-999.0,56,-99.99,,,-99.99,,2013-06-16 21:22:00,
2013-06-16 17:33:00,81.0,64.0,30.08,SSE,157,6.0,-999.0,56,-99.99,,,-99.99,,2013-06-16 21:33:00,
2013-06-16 17:42:00,80.0,63.0,30.07,South,176,7.0,-999.0,57,-99.99,,,-99.99,,2013-06-16 21:42:00,
2013-06-16 17:53:00,80.0,63.0,30.07,SSE,160,5.0,-999.0,56,-99.99,,,-99.99,,2013-06-16 21:53:00,
2013-06-16 18:01:00,80.0,63.0,30.07,SSE,160,5.0,-999.0,56,-99.99,,,-99.99,,2013-06-16 22:01:00,
2013-06-16 18:12:00,80.0,63.0,30.07,SSW,192,6.0,-999.0,56,-99.99,,,-99.99,,2013-06-16 22:12:00,
2013-06-16 18:22:00,80.0,64.0,30.07,SSW,196,5.0,-999.0,58,-99.99,,,-99.99,,2013-06-16 22:22:00,
2013-06-16 18:32:00,80.0,64.0,30.07,SSW,196,5.0,-999.0,58,-99.99,,,-99.99,,2013-06-16 22:32:00,
2013-06-16 18:42:00,79.0,63.0,30.07,SSW,198,5.0,-999.0,58,-99.99,,,-99.99,,2013-06-16 22:42:00,
2013-06-16 18:52:00,79.0,63.0,30.07,SSW,198,5.0,-999.0,58,-99.99,,,-99.99,,2013-06-16 22:52:00,
2013-06-16 19:02:00,78.0,63.0,30.07,SSW,209,5.0,-999.0,60,-99.99,,,-99.99,,2013-06-16 23:02:00,
2013-06-16 19:11:00,78.0,63.0,30.08,WSW,254,2.0,-999.0,60,-99.99,,,-99.99,,2013-06-16 23:11:00,
2013-06-16 19:22:00,78.0,63.0,30.08,WSW,254,2.0,-999.0,60,-99.99,,,-99.99,,2013-06-16 23:22:00,
2013-06-16 19:32:00,78.0,63.0,30.08,South,178,4.0,-999.0,61,-99.99,,,-99.99,,2013-06-16 23:32:00,
2013-06-16 19:42:00,78.0,64.0,30.08,South,184,3.0,-999.0,62,-99.99,,,-99.99,,2013-06-16 23:42:00,
2013-06-16 19:52:00,78.0,64.0,30.08,South,184,3.0,-999.0,62,-99.99,,,-99.99,,2013-06-16 23:52:00,
2013-06-16 20:02:00,78.0,64.0,30.08,WSW,253,5.0,-999.0,62,-99.99,,,-99.99,,2013-06-17 00:02:00,
2013-06-16 20:12:00,78.0,64.0,30.08,SSE,168,5.0,-999.0,62,-99.99,,,-99.99,,2013-06-17 00:12:00,
2013-06-16 20:22:00,78.0,64.0,30.08,SSE,168,5.0,-999.0,62,-99.99,,,-99.99,,2013-06-17 00:22:00,
2013-06-16 20:32:00,77.0,63.0,30.07,SSW,213,5.0,-999.0,63,-99.99,,,-99.99,,2013-06-17 00:32:00,
2013-06-16 20:43:00,77.0,64.0,30.07,SSW,202,3.0,-999.0,65,-99.99,,,-99.99,,2013-06-17 00:43:00,
2013-06-16 20:52:00,77.0,64.0,30.07,SSW,202,3.0,-999.0,65,-99.99,,,-99.99,,2013-06-17 00:52:00,
2013-06-16 21:02:00,77.0,64.0,30.07,South,176,4.0,-999.0,65,-99.99,,,-99.99,,2013-06-17 01:02:00,
2013-06-16 21:12:00,76.0,64.0,30.07,South,185,1.0,-999.0,66,-99.99,,,-99.99,,2013-06-17 01:12:00,
2013-06-16 21:22:00,76.0,64.0,30.07,South,185,1.0,-999.0,66,-99.99,,,-99.99,,2013-06-17 01:22:00,
2013-06-16 21:32:00,76.0,64.0,30.07,SSW,203,2.0,-999.0,66,-99.99,,,-99.99,,2013-06-17 01:32:00,
2013-06-16 21:43:00,76.0,64.0,30.08,SSW,203,1.0,-999.0,66,-99.99,,,-99.99,,2013-06-17 01:43:00,
2013-06-16 21:53:00,76.0,64.0,30.08,SSW,203,1.0,-999.0,66,-99.99,,,-99.99,,2013-06-17 01:53:00,
2013-06-16 22:03:00,76.0,64.0,30.08,SSW,203,1.0,-999.0,66,-99.99,,,-99.99,,2013-06-17 02:03:00,
2013-06-16 22:12:00,76.0,64.0,30.08,SSW,200,1.0,-999.0,66,-99.99,,,-99.99,,2013-06-17 02:12:00,
2013-06-16 22:22:00,76.0,64.0,30.08,SSW,200,1.0,-999.0,66,-99.99,,,-99.99,,2013-06-17 02:22:00,
2013-06-16 22:34:00,75.0,63.0,30.09,SSW,200,1.0,-999.0,66,-99.99,,,-99.99,,2013-06-17 02:34:00,
2013-06-16 22:43:00,75.0,63.0,30.09,SSW,200,1.0,-999.0,66,-99.99,,,-99.99,,2013-06-17 02:43:00,
2013-06-16 22:53:00,75.0,63.0,30.09,SSW,200,1.0,-999.0,66,-99.99,,,-99.99,,2013-06-17 02:53:00,
2013-06-16 23:02:00,75.0,63.0,30.10,SSW,200,0.0,-999.0,67,-99.99,,,-99.99,,2013-06-17 03:02:00,
2013-06-16 23:12:00,75.0,64.0,30.10,SSW,200,0.0,-999.0,69,-99.99,,,-99.99,,2013-06-17 03:12:00,
2013-06-16 23:22:00,75.0,64.0,30.10,SSW,200,0.0,-999.0,69,-99.99,,,-99.99,,2013-06-17 03:22:00,
2013-06-16 23:33:00,74.0,64.0,30.10,SSW,200,0.0,-999.0,71,-99.99,,,-99.99,,2013-06-17 03:33:00,
2013-06-16 23:44:00,73.0,63.0,30.10,SSW,200,0.0,-999.0,72,-99.99,,,-99.99,,2013-06-17 03:44:00,
2013-06-16 23:53:00,73.0,63.0,30.10,SSW,200,0.0,-999.0,72,-99.99,,,-99.99,,2013-06-17 03:53:00,